ゲーレルス第3彗星

82P/Gehrels 3 (2018)

English version
Home page
Updated on June 14, 2021

---------------------------------------------------------------------

・ プロフィール

・ 軌道要素

Epoch 2018 June 11.0 TT = JDT 2458280.5                                         
T 2018 June 28.61456 TT                                 Rudenko                 
q   3.6342297            (2000.0)            P               Q                  
n   0.11693149     Peri.  227.19717     -0.28403201     -0.95866528             
a   4.1417295      Node   239.31113     +0.88534196     -0.25544640             
e   0.1225333      Incl.    1.12822     +0.36809705     -0.12533166             
P   8.43                                                                        
From 113 observations 1975 Oct. 30-2020 May 20, mean residual 0".6.             

・ 光度変化

        m1 = 6.5 + 5 logΔ + 20.0 log r

---------------------------------------------------------------------

軌道要素はM.P.E.C. 2020-L06に掲載されたものです。
光度グラフはComet for Windowsで作成したものです。

---------------------------------------------------------------------

Copyright(C) Seiichi Yoshida (comet@aerith.net). All rights reserved.